Location: Unnamed
(48.6007°N, 2.4808°E)
Time: 09:20:01
(UTC+02:00)

PCSat - Pass Details

Date: 30 March 2023
Orbit: 783 x 794 km, 67.1° (Epoch: 29 May)

Event Time Altitude Azimuth Distance (km) Brightness Sun altitude
Rises 20:54:48 0° 293° (WNW) 3,289 15.1 -6.9°
Reaches altitude 10° 20:58:55 10° 323° (NW) 2,365 12.9 -7.6°
Maximum altitude 21:01:03 12° 346° (NNW) 2,215 12.3 -7.9°
Drops below altitude 10° 21:03:11 10° 10° (N) 2,369 12.1 -8.3°
Sets 21:07:19 0° 40° (NE) 3,302 12.5 -8.9°
